Location: Napa Junction
(38.1874°N, 122.2508°W)
Time: 23:50:37
(UTC+00:00)

CENTAUR R/B - Pass Details

Date: 12 December 2024
Orbit: 654 x 1528 km, 63.4° (Epoch: 19 January)

Event Time Altitude Azimuth Distance (km) Brightness Sun altitude
Rises 13:46:42 0° 216° (SW) 3,146 5.0 -17.1°
Reaches altitude 10° 13:48:53 10° 218° (SW) 2,305 4.3 -16.7°
Maximum altitude 13:54:09 76° 304° (NW) 909 2.2 -15.7°
Drops below altitude 10° 14:00:45 10° 31° (NNE) 2,858 5.1 -14.5°
Sets 14:03:43 0° 33° (NNE) 3,960 5.9 -13.9°
